Location: Albany
(42.6526°N, 73.7562°W)
Time: 08:49:23
(UTC+00:00)

Cosmos 2263 Rocket - Pass Details

Date: 19 November 2019
Orbit: 825 x 847 km, 71.0° (Epoch: 06 December)

Event Time Altitude Azimuth Distance (km) Brightness Sun altitude
Rises 23:00:08 0° 341° (NNW) 3,372 5.4 -16.6°
Reaches altitude 10° 23:02:46 10° 350° (N) 2,435 4.6 -17.1°
Maximum altitude 23:07:55 37° 57° (ENE) 1,254 2.6 -18.0°
Enters shadow 23:09:29 31° 92° (E) 1,404 2.8 -18.3°
